Change the Weather History Date:

Saturday, July 28, 2012

  Actual Average Record
Temperature  
Mean Temperature 58 °F 57 °F  
Max Temperature 80 °F 74 °F 84 °F (2006)
Min Temperature 37 °F 41 °F 32 °F (2002)
Degree Days  
Heating Degree Days 6 8  
Month to date heating degree days 259  
Since 1 June heating degree days 752  
Since 1 July heating degree days 259  
Cooling Degree Days 0 0  
Month to date cooling degree days 0  
Year to date cooling degree days 0  
Since 1 June cooling degree days 0  
Growing Degree Days 8 (Base 50)    
Moisture  
Dew Point 41 °F    
Average Humidity 63    
Maximum Humidity 97    
Minimum Humidity 17    
Precipitation  
Precipitation 0.00 in 0.05 in 0.27 in (2013)
Month to date precipitation 1.33  
Year to date precipitation 12.41  
Sea Level Pressure  
Sea Level Pressure 30.16 in    
Wind  
Wind Speed 1 mph (WNW)    
Max Wind Speed 8 mph    
Max Gust Speed 23 mph    
T = Trace of Precipitation, MM = Missing Value Source: NWS Daily Summary

Daily Weather History Graph

Daily Weather History Graph

Search for Another Location

Airport or City:

Trip Planner

Search our weather history database for the weather conditions in past years. The results will help you decide how hot, cold, wet, or windy it might be!

Date:

Astronomy

Jul. 28, 2012 Rise Set
Actual Time 6:04 AM MDT 8:51 PM MDT
Civil Twilight 5:30 AM MDT 9:24 PM MDT
Nautical Twilight 4:47 AM MDT 10:07 PM MDT
Astronomical Twilight 3:57 AM MDT 10:56 PM MDT
Moon 5:01 PM MDT (7/28) 1:25 AM MDT (7/28)
Length of Visible Light 15h 54m
Length of Day
14h 46m
Waxing Gibbous, 76% of the Moon is Illuminated
Jul 28
Waxing Gibbous
Aug 1
Full
Aug 9
Last Quarter
Aug 17
New
Aug 24
First Quarter

Hourly Weather History & Observations

Time (MDT) Temp. Windchill Dew Point Humidity Pressure Visibility Wind Dir Wind Speed Gust Speed Precip Events Conditions
12:56 AM 43.0 °F - 41.0 °F 93% 30.15 in - Calm Calm - N/A   Unknown
1:56 AM 42.1 °F - 39.9 °F 92% 30.16 in - Calm Calm - N/A   Unknown
2:56 AM 41.0 °F - 39.0 °F 93% 30.16 in - Calm Calm - N/A   Unknown
3:56 AM 39.9 °F - 39.0 °F 97% 30.14 in - Calm Calm - N/A   Unknown
4:56 AM 39.0 °F - 37.0 °F 93% 30.15 in - Calm Calm - N/A   Unknown
5:56 AM 37.9 °F 35.5 °F 37.0 °F 97% 30.24 in - NNW 3.5 mph - N/A   Unknown
6:56 AM 37.9 °F - 37.0 °F 97% 30.26 in - Calm Calm - N/A   Unknown
7:56 AM 46.9 °F - 43.0 °F 86% 30.23 in - Calm Calm - N/A   Unknown
8:56 AM 55.0 °F - 48.0 °F 77% 30.21 in - Calm Calm - N/A   Unknown
9:56 AM 59.0 °F - 48.0 °F 67% 30.20 in - Variable 3.5 mph - N/A   Unknown
10:56 AM 64.0 °F - 46.9 °F 54% 30.19 in - Variable 3.5 mph - N/A   Unknown
11:56 AM 66.0 °F - 46.9 °F 50% 30.18 in - Variable 4.6 mph - N/A   Unknown
12:56 PM 71.1 °F - 48.0 °F 44% 30.16 in - Calm Calm - N/A   Unknown
1:56 PM 78.1 °F - 41.0 °F 27% 30.11 in - Variable 4.6 mph - N/A   Unknown
2:56 PM 80.1 °F - 30.9 °F 17% 30.09 in - SSW 8.1 mph - N/A   Unknown
3:56 PM 80.1 °F - 35.1 °F 20% 30.09 in - West 8.1 mph - N/A   Unknown
4:56 PM 78.1 °F - 32.0 °F 19% 30.10 in - Variable 5.8 mph 23.0 mph N/A   Unknown
5:56 PM 66.9 °F - 45.0 °F 45% 30.19 in - Calm Calm - N/A   Unknown
6:56 PM 66.9 °F - 46.9 °F 49% 30.17 in - Calm Calm - N/A   Unknown
7:56 PM 66.0 °F - 44.1 °F 45% 30.14 in - Calm Calm - N/A   Unknown
8:56 PM 59.0 °F - 45.0 °F 60% 30.14 in - Calm Calm - N/A   Unknown
9:56 PM 55.9 °F - 43.0 °F 62% 30.16 in - NNW 3.5 mph - N/A   Unknown
10:56 PM 52.0 °F - 42.1 °F 69% 30.16 in - Calm Calm - N/A   Unknown
11:56 PM 48.9 °F - 39.9 °F 71% 30.16 in - Calm Calm - N/A   Unknown